Casper, WY

3:43 PM MST on November 15, 2019 (GMT -0700)
Natrona County International

Weather History for KCPR - October, 2019

Change the Weather History Date:

Tuesday, October 22, 2019

  Actual Average Record
Temperature  
Mean Temperature 42 °F 43 °F  
Max Temperature 55 °F 57 °F 80 °F (2003)
Min Temperature 28 °F 30 °F 10 °F (1984)
Degree Days  
Heating Degree Days 23 22  
Month to date heating degree days 479 405  
Since 1 July heating degree days 650 690  
Cooling Degree Days 0 0  
Month to date cooling degree days 0 0  
Year to date cooling degree days 441 422  
Moisture  
Dew Point 29 °F    
Average Humidity 65    
Maximum Humidity 85    
Minimum Humidity 45    
Precipitation  
Precipitation T in 0.03 in 0.69 in (1986)
Month to date precipitation 0.98 0.81  
Year to date precipitation 11.68 10.97  
Snow  
Snow 0.00 in 0.30 in - ()
Month to date snowfall 7.6 4.8  
Since 1 July snowfall 7.6 6.6  
Since 1 September snowfall 7.6 6.6  
Snow Depth 0.00 in    
Sea Level Pressure  
Sea Level Pressure 29.99 in    
Wind  
Wind Speed 17 mph (WSW)    
Max Wind Speed 36 mph    
Max Gust Speed 49 mph    
Visibility 10 miles    
Events Rain    
T = Trace of Precipitation, MM = Missing Value Source: NWS Daily Summary

Daily Weather History Graph

Daily Weather History Graph

Search for Another Location

Airport or City:

Astronomy

Oct. 22, 2019 Rise Set
Actual Time 7:27 AM MDT 6:12 PM MDT
Civil Twilight 6:58 AM MDT 6:41 PM MDT
Nautical Twilight 6:25 AM MDT 7:14 PM MDT
Astronomical Twilight 5:52 AM MDT 7:47 PM MDT
Moon 12:28 AM MDT (10/22) 3:35 PM MDT (10/22)
Length of Visible Light 11h 42m
Length of Day
10h 44m
Last Quarter, 36% of the Moon is Illuminated
Oct 22
Last Quarter
Oct 27
New
Nov 4
First Quarter
Nov 12
Full
Nov 19
Last Quarter

Hourly Weather History & Observations

Time (MDT) Temp. Windchill Dew Point Humidity Pressure Visibility Wind Dir Wind Speed Gust Speed Precip Events Conditions
12:53 AM 28.0 °F 22.8 °F 24.1 °F 85% 30.18 in 10.0 mi South 4.6 mph - N/A   Clear
1:53 AM 30.9 °F 20.7 °F 25.0 °F 79% 30.17 in 10.0 mi SW 13.8 mph - N/A   Clear
2:53 AM 32.0 °F 23.0 °F 24.1 °F 73% 30.15 in 10.0 mi SW 11.5 mph - N/A   Clear
3:53 AM 32.0 °F 21.6 °F 23.0 °F 69% 30.13 in 10.0 mi SW 15.0 mph - N/A   Mostly Cloudy
4:53 AM 30.9 °F 21.2 °F 23.0 °F 72% 30.13 in 10.0 mi SW 12.7 mph - N/A   Scattered Clouds
5:53 AM 30.9 °F 21.7 °F 23.0 °F 72% 30.14 in 10.0 mi SW 11.5 mph - N/A   Clear
6:53 AM 33.1 °F 24.4 °F 24.1 °F 70% 30.16 in 10.0 mi SW 11.5 mph - N/A   Overcast
7:53 AM 33.1 °F 21.2 °F 24.1 °F 70% 30.14 in 10.0 mi SW 20.7 mph 27.6 mph N/A   Clear
8:53 AM 36.0 °F 25.6 °F 26.1 °F 67% 30.14 in 10.0 mi SW 18.4 mph - N/A   Clear
9:53 AM 39.0 °F 28.5 °F 27.0 °F 62% 30.09 in 10.0 mi SW 23.0 mph 31.1 mph N/A   Clear
10:53 AM 45.0 °F 36.0 °F 30.0 °F 56% 30.04 in 10.0 mi SW 25.3 mph 39.1 mph 0.00 in   Clear
11:53 AM 50.0 °F - 30.9 °F 48% 30.00 in 10.0 mi SW 25.3 mph 38.0 mph N/A   Clear
12:53 PM 53.1 °F - 32.0 °F 45% 29.96 in 10.0 mi SW 21.9 mph 33.4 mph N/A   Mostly Cloudy
1:28 PM 55.0 °F - 33.1 °F 43% 29.96 in 10.0 mi WSW 24.2 mph 40.3 mph N/A   Mostly Cloudy
1:53 PM 54.0 °F - 33.1 °F 45% 29.92 in 10.0 mi SW 23.0 mph 34.5 mph N/A   Overcast
2:53 PM 53.1 °F - 34.0 °F 48% 29.89 in 10.0 mi SW 17.3 mph 33.4 mph 0.00 in Rain Light Rain
4:53 PM 50.0 °F - 34.0 °F 54% 29.86 in 10.0 mi West 10.4 mph - N/A   Mostly Cloudy
5:53 PM 50.0 °F - 33.1 °F 52% 29.86 in 10.0 mi West 13.8 mph - N/A   Mostly Cloudy
6:53 PM 46.9 °F - 32.0 °F 56% 29.86 in 10.0 mi WSW 13.8 mph - N/A   Clear
7:53 PM 46.9 °F - 30.0 °F 52% 29.86 in 10.0 mi West 20.7 mph 28.8 mph N/A   Clear
8:53 PM 48.0 °F - 28.0 °F 46% 29.81 in 10.0 mi West 28.8 mph 44.9 mph 0.00 in Rain Light Rain
9:53 PM 46.9 °F - 28.0 °F 48% 29.83 in 10.0 mi West 20.7 mph - 0.00 in   Clear
10:53 PM 46.9 °F - 28.9 °F 50% 29.82 in 10.0 mi West 23.0 mph 32.2 mph N/A   Clear
11:25 PM 39.9 °F 30.8 °F 32.0 °F 73% 29.93 in 10.0 mi North 18.4 mph 34.5 mph N/A   Mostly Cloudy
11:32 PM 39.0 °F 29.3 °F 32.0 °F 76% 29.93 in 10.0 mi North 19.6 mph 39.1 mph N/A   Mostly Cloudy
11:53 PM 37.0 °F 26.7 °F 32.0 °F 82% 29.91 in 10.0 mi NNE 19.6 mph 26.5 mph N/A   Overcast